Portada
METAR-TAF:

METAR-TAF

Aeroports :

South Jersey Regional Airport

Mount Holly, Nova Jersey, Estats Units d'Amèrica

latitud: 39-56-26N, longitud: 074-50-28W, altitud: 16 m

Observació

L'informe es va fer fa 39 minuts, a les 19:54 UTC
Vent 8 kt del Sud amb ràfegues de 16 kt
Temperatura 13°C
Humitat 38%
Pressió 1015 hPa
Visibilitat: 16.1 km
Cel clar

METAR: KVAY 241954Z AUTO 17008G16KT 10SM CLR 13/M01 A2996 RMK AO2 SLP144 T01331006

Hora: 15:33 (20:33 UTC)


TAF: manca

Observacions i pronòstics meteorològics de més de 4000 aeroports (METAR i TAF).

Les estacions disponibles són els punts grocs i vermells al mapa.

Posi el ratolí al punt desitjat per veure el nom de l'estació.

Feu clic per veure les observacions i els pronòstics meteorològics.

Per canviar el mapa: feu clic els botons verds amb una creu de color negre per apropar; al botó verd amb un guió per allunyar la imatge; o en les fletxes verdes per a mapes adjacents.


METAR-TAF: